User: anonymous   Login
Location: Cluny
(50.9333°N, 112.8167°W)
Time: 05:08:31
(UTC-07:00)
Language:

Cosmos 1743 Rocket - Orbit

View from above orbital plane
View from above orbital plane
View from above satellite
View from above satellite

Ground track
Ground track

The orbit data is extracted from the following two-line orbital elements,

1 16720U 86034B   16043.21564977  .00000314  00000-0  35511-4 0  9999
2 16720  82.5569 339.2019 0018705 282.3969 224.0840 14.83195483606480
Epoch (UTC): 12 February 2016 05:10:32
Eccentricity: 0.0018705
inclination: 82.5569°
perigee height: 606 km
apogee height: 632 km
right ascension of ascending node: 339.2019°
argument of perigee: 282.3969°
revolutions per day: 14.83195483
mean anomaly at epoch: 224.0840°
orbit number at epoch: 60648

The dashed part of the orbit path shows where the satellite is in the earth's shadow,  

DLR